[[{"header":{"parameterUnit":"m.s-1","parameterCategory":1,"la1":30.2991,"la2":30.254,"lo1":-89.0895,"lo2":-89.0444,"dy":0.0017,"dx":0.0017,"nx":28,"ny":28,"refTime":"2025-11-17T03:00:00:Z","depth":0,"parameterNumber":2,"parameterNumberName":"U-component_of_WINDS"},"data":[0,0,0,0,0,0,0,0,0,0,0,0,0,0,0,0,0,0,0,0,0,0,0,0,0,0,0,0,0,0,0,0,0,0,0,0,0,0,0,0,0,0,0,0,0,0,0,0,0,0,0,0,0,0,0,0,0,0,-1.4833,-1.4832,0,-1.4753,-1.4752,-1.4751,-1.47,-1.4699,-1.4699,-1.4699,-1.4617,-1.4616,-1.4614,0,0,0,0,0,0,0,0,0,0,0,0,0,-1.494,-1.4938,-1.4833,-1.4832,-1.4831,-1.4753,-1.4752,-1.4751,-1.47,-1.4699,-1.4699,-1.4698,-1.4618,-1.4616,-1.4614,0,0,0,0,0,0,0,0,0,0,0,0,0,-1.488,-1.4938,-1.4833,-1.4796,-1.4792,-1.4754,-1.4752,-1.4751,-1.47,-1.4699,-1.4699,-1.4698,-1.4619,-1.4616,-1.4613,-1.4606,0,0,-1.4605,-1.4604,0,0,0,0,0,0,0,0,-1.4884,-1.4877,-1.4802,-1.4798,-1.4794,-1.4736,-1.476,-1.4702,-1.47,-1.4735,-1.4699,-1.4698,-1.4657,-1.4651,-1.4637,-1.4602,-1.4599,-1.4605,-1.4603,-1.4602,-1.4601,0,0,0,0,0,0,0,-1.4888,-1.488,-1.4801,-1.4801,-1.4796,-1.4783,-1.4774,-1.4749,-1.47,-1.4732,-1.4728,-1.4719,-1.4655,-1.464,-1.4635,-1.4598,-1.4605,-1.4602,-1.46,-1.4599,-1.4552,-1.4553,0,0,0,0,0,0,-1.4898,-1.4883,-1.4804,-1.4799,-1.4838,-1.4782,-1.4771,-1.4755,-1.47,-1.4691,-1.4719,-1.4717,-1.4645,-1.4638,-1.4632,-1.4619,-1.4602,-1.4599,-1.4598,-1.4552,-1.4552,-1.4553,0,0,0,0,0,0,-1.4901,-1.4891,-1.4807,-1.484,-1.4828,-1.478,-1.4762,-1.4754,-1.4739,-1.4691,-1.4682,-1.4714,-1.4645,-1.4636,-1.4613,-1.4616,-1.4598,-1.4595,-1.4551,-1.4552,-1.4553,-1.4594,0,0,0,0,0,0,-1.4904,-1.4893,-1.4889,-1.484,-1.4827,-1.4789,-1.4762,-1.4752,-1.4734,-1.473,-1.4683,-1.4674,-1.4644,-1.4617,-1.461,-1.4611,-1.4593,-1.4551,-1.4552,-1.4553,-1.4592,-1.4596,-1.4599,0,0,0,0,0,-1.4908,-1.4904,-1.4889,-1.488,-1.4822,-1.4789,-1.4781,-1.4746,-1.4735,-1.4731,-1.47,-1.4676,-1.4617,-1.4615,-1.4607,-1.4607,-1.4551,-1.4552,-1.4552,-1.4591,-1.4595,-1.4599,0,0,0,0,0,0,-1.4955,-1.4897,-1.488,-1.486,-1.483,-1.4781,-1.4774,-1.4752,-1.4724,-1.4722,-1.4679,-1.4669,-1.465,-1.4627,-1.4626,-1.4598,-1.4581,-1.458,-1.4613,-1.4617,-1.462,-1.4626,-1.4591,0,0,0,0,0,-1.4963,-1.4941,-1.4892,-1.488,-1.4866,-1.4823,-1.4808,-1.4783,-1.475,-1.4737,-1.4704,-1.4673,-1.4647,-1.4631,-1.4605,-1.4589,-1.4578,-1.4586,-1.4589,-1.4592,-1.4592,-1.4581,-1.4584,-1.4556,-1.4556,-1.4556,0,0,-1.4979,-1.4945,-1.4934,-1.4888,-1.4862,-1.484,-1.4812,-1.4791,-1.4775,-1.4733,-1.4709,-1.4684,-1.4647,-1.4627,-1.4617,-1.4607,-1.4597,-1.4594,-1.4597,-1.4594,-1.4582,-1.4585,-1.4587,-1.4557,-1.4557,-1.4556,0,0,-1.4997,-1.497,-1.4956,-1.493,-1.4891,-1.4862,-1.486,-1.4813,-1.4795,-1.477,-1.4739,-1.4719,-1.4676,-1.465,-1.4632,-1.4642,-1.4618,-1.4634,-1.4652,-1.4642,-1.4644,-1.4646,-1.4648,-1.465,-1.4634,-1.4634,-1.4634,0,-1.5022,-1.4989,-1.4952,-1.4932,-1.4912,-1.4875,-1.486,-1.4837,-1.4791,-1.4779,-1.4769,-1.4714,-1.4686,-1.466,-1.4662,-1.4649,-1.4643,-1.4638,-1.4647,-1.4648,-1.4649,-1.4651,-1.4652,-1.4636,-1.4636,-1.4636,-1.4636,0,-1.5021,-1.4998,-1.4992,-1.4948,-1.4928,-1.4911,-1.4872,-1.4856,-1.4834,-1.4807,-1.4782,-1.4748,-1.4713,-1.4706,-1.4684,-1.4676,-1.4671,-1.4655,-1.4637,-1.4655,-1.4655,-1.4656,-1.4639,-1.4639,-1.4638,-1.4638,0,0,-1.5064,-1.5001,-1.4999,-1.4979,-1.4933,-1.4914,-1.4896,-1.4863,-1.485,-1.482,-1.4803,-1.4768,-1.4753,-1.4732,-1.4707,-1.4698,-1.4707,-1.4683,-1.4681,-1.4687,-1.4695,-1.4706,-1.4708,-1.4692,-1.4692,-1.4692,-1.4698,0,-1.5075,-1.5039,-1.5005,-1.4982,-1.496,-1.4924,-1.4908,-1.4878,-1.4853,-1.4831,-1.4803,-1.4779,-1.4761,-1.4748,-1.4738,-1.4708,-1.4708,-1.4707,-1.4675,-1.4674,-1.4683,-1.4708,-1.472,-1.4727,-1.4698,-1.4698,-1.4698,0,-1.5081,-1.5052,-1.5026,-1.4982,-1.4972,-1.4958,-1.4924,-1.4904,-1.487,-1.4852,-1.4829,-1.4803,-1.4782,-1.4768,-1.4738,-1.4739,-1.4724,-1.4708,-1.4707,-1.4701,-1.4686,-1.4702,-1.4729,-1.4729,-1.4699,-1.4699,-1.4699,0,-1.5114,-1.5069,-1.5047,-1.5031,-1.498,-1.497,-1.4949,-1.4914,-1.4896,-1.4867,-1.4855,-1.4825,-1.4808,-1.4785,-1.4751,-1.4745,-1.4725,-1.4708,-1.4709,-1.4709,-1.4704,-1.4705,-1.4728,-1.4698,-1.4698,-1.4698,-1.4698,0,-1.5127,-1.5112,-1.5061,-1.5047,-1.503,-1.4992,-1.4976,-1.4951,-1.4921,-1.4902,-1.487,-1.4853,-1.4811,-1.4789,-1.4763,-1.4742,-1.4735,-1.4719,-1.4712,-1.4721,-1.4723,-1.4709,-1.4707,-1.4698,-1.4698,-1.4698,-1.4698,0,-1.516,-1.5125,-1.5099,-1.5052,-1.504,-1.5029,-1.499,-1.4975,-1.4949,-1.4925,-1.4918,-1.4876,-1.4849,-1.4814,-1.4775,-1.4758,-1.4739,-1.4729,-1.475,-1.4746,-1.4748,-1.4747,-1.4761,-1.4761,-1.4734,-1.4734,-1.4734,0,-1.5169,-1.5157,-1.511,-1.5095,-1.5074,-1.505,-1.5032,-1.4995,-1.4977,-1.4937,-1.4928,-1.4898,-1.4872,-1.483,-1.4796,-1.4767,-1.4755,-1.4762,-1.475,-1.4759,-1.4753,-1.4753,-1.4752,-1.4764,-1.4765,-1.4765,-1.4765,0,-1.519,-1.5174,-1.5148,-1.5117,-1.5095,-1.5069,-1.5041,-1.5031,-1.4988,-1.497,-1.4941,-1.4921,-1.4882,-1.4853,-1.4819,-1.4797,-1.4774,-1.477,-1.4768,-1.4776,-1.4788,-1.478,-1.4756,-1.4769,-1.4769,-1.4768,-1.4768,-1.4768,-1.5211,-1.5198,-1.5162,-1.5135,-1.511,-1.5085,-1.5069,-1.504,-1.5016,-1.4981,-1.4961,-1.4933,-1.4899,-1.4852,-1.4831,-1.4808,-1.48,-1.4797,-1.4796,-1.4796,-1.4798,-1.4793,-1.4802,-1.4802,-1.4802,-1.4802,-1.4802,0,-1.5228,-1.5204,-1.5179,-1.5141,-1.5119,-1.51,-1.5069,-1.5052,-1.5028,-1.4998,-1.4973,-1.4941,-1.4912,-1.4877,-1.4846,-1.4835,-1.4824,-1.4828,-1.4828,-1.4823,-1.4809,-1.4812,-1.4838,-1.4838,-1.4838,-1.4838,-1.4838,-1.4838,-1.5235,-1.5212,-1.5191,-1.5156,-1.5131,-1.5103,-1.5087,-1.5063,-1.504,-1.5004,-1.498,-1.4958,-1.4926,-1.4893,-1.4866,-1.4856,-1.4846,-1.4853,-1.484,-1.4827,-1.4824,-1.4821,-1.4824,-1.4851,-1.4851,-1.4856,-1.4856,-1.4856]},{"header":{"parameterUnit":"m.s-1","parameterCategory":1,"la1":30.2991,"la2":30.254,"lo1":-89.0895,"lo2":-89.0444,"dy":0.0017,"dx":0.0017,"nx":28,"ny":28,"refTime":"2025-11-17T03:00:00:Z","depth":0,"parameterNumber":3,"parameterNumberName":"V-component_of_WINDS"},"data":[0,0,0,0,0,0,0,0,0,0,0,0,0,0,0,0,0,0,0,0,0,0,0,0,0,0,0,0,0,0,0,0,0,0,0,0,0,0,0,0,0,0,0,0,0,0,0,0,0,0,0,0,0,0,0,0,0,0,2.0284,2.0283,0,2.0223,2.0222,2.0222,2.0192,2.0192,2.0192,2.0192,2.0124,2.0122,2.012,0,0,0,0,0,0,0,0,0,0,0,0,0,2.037,2.0369,2.0284,2.0283,2.0282,2.0223,2.0222,2.0221,2.0192,2.0192,2.0192,2.0192,2.0124,2.0122,2.012,0,0,0,0,0,0,0,0,0,0,0,0,0,2.0323,2.0369,2.0284,2.0261,2.0258,2.0223,2.0222,2.0221,2.0192,2.0192,2.0192,2.0192,2.0125,2.0122,2.012,2.0102,0,0,2.0111,2.011,0,0,0,0,0,0,0,0,2.0326,2.032,2.0265,2.0262,2.0259,2.0215,2.0228,2.0181,2.0192,2.0217,2.0192,2.0192,2.0154,2.0149,2.0137,2.0099,2.0096,2.0111,2.0109,2.0108,2.0107,0,0,0,0,0,0,0,2.0329,2.0323,2.026,2.0264,2.026,2.0252,2.0245,2.0219,2.0185,2.0214,2.0212,2.0206,2.0152,2.014,2.0135,2.0095,2.0111,2.0109,2.0107,2.0106,2.0041,2.0041,0,0,0,0,0,0,2.0337,2.0326,2.0261,2.0258,2.0294,2.025,2.0243,2.0229,2.0186,2.0179,2.0206,2.0204,2.0144,2.0138,2.0133,2.011,2.0108,2.0106,2.0104,2.0041,2.0041,2.0041,0,0,0,0,0,0,2.0339,2.0332,2.0264,2.0291,2.0282,2.0249,2.0233,2.0228,2.0215,2.0179,2.0173,2.0199,2.0144,2.0136,2.0111,2.0108,2.0104,2.0102,2.0041,2.0041,2.0041,2.0065,0,0,0,0,0,0,2.0342,2.0333,2.0326,2.0291,2.0281,2.0244,2.0233,2.0227,2.0211,2.0209,2.0172,2.0165,2.0144,2.0115,2.0108,2.0104,2.01,2.0041,2.0041,2.0041,2.0064,2.0066,2.0067,0,0,0,0,0,2.0345,2.0334,2.0326,2.0319,2.0272,2.0244,2.0238,2.0215,2.0211,2.0204,2.0181,2.0166,2.0109,2.0113,2.0104,2.0099,2.0041,2.0041,2.0041,2.0064,2.0066,2.0067,0,0,0,0,0,0,2.0367,2.0329,2.032,2.0298,2.0275,2.0239,2.023,2.0217,2.0193,2.0192,2.0162,2.0154,2.0131,2.0112,2.0117,2.0081,2.0074,2.0072,2.0094,2.0095,2.0097,2.0101,2.0098,0,0,0,0,0,2.037,2.0352,2.0319,2.0302,2.0291,2.0263,2.025,2.0234,2.0208,2.0198,2.0173,2.0147,2.0123,2.0108,2.0084,2.0062,2.0053,2.0054,2.0055,2.0057,2.0055,2.0043,2.0043,2.004,2.004,2.004,0,0,2.0374,2.0351,2.0341,2.0306,2.0287,2.0268,2.0255,2.0234,2.022,2.0194,2.0169,2.015,2.0119,2.0096,2.0084,2.0079,2.0055,2.0056,2.0058,2.0056,2.0043,2.0043,2.0044,2.004,2.004,2.004,0,0,2.0374,2.0354,2.0339,2.0321,2.0292,2.0274,2.027,2.0237,2.0224,2.0199,2.018,2.0161,2.0121,2.01,2.0084,2.0078,2.0064,2.0071,2.0077,2.0066,2.0066,2.0066,2.0065,2.0064,2.007,2.007,2.007,0,2.0382,2.0355,2.0332,2.0315,2.03,2.0278,2.0262,2.0245,2.0209,2.0199,2.0195,2.0145,2.0122,2.0094,2.0093,2.0081,2.0076,2.0075,2.0068,2.0068,2.0068,2.0066,2.0065,2.0071,2.0071,2.0071,2.0071,0,2.0367,2.0348,2.0339,2.0309,2.0293,2.0275,2.025,2.0236,2.0223,2.0204,2.0179,2.0152,2.0123,2.0115,2.01,2.0085,2.0084,2.0074,2.0067,2.007,2.0068,2.0067,2.0072,2.0072,2.0072,2.0071,0,0,2.0377,2.0337,2.0334,2.032,2.0288,2.0272,2.0254,2.0228,2.0217,2.0194,2.0178,2.0145,2.0137,2.0119,2.0102,2.0092,2.009,2.0084,2.0083,2.0087,2.0072,2.008,2.008,2.0081,2.008,2.008,2.0075,0,2.0372,2.0342,2.0322,2.0298,2.0281,2.0261,2.0246,2.0224,2.0206,2.0188,2.0168,2.0146,2.0136,2.0126,2.0115,2.0093,2.0087,2.0093,2.0065,2.0064,2.0074,2.0078,2.0086,2.0083,2.0074,2.0074,2.0074,0,2.0362,2.0342,2.0318,2.029,2.0281,2.0268,2.0243,2.0226,2.0201,2.0189,2.0171,2.0154,2.0133,2.0128,2.0099,2.0104,2.0091,2.0079,2.0078,2.0075,2.0069,2.0075,2.0081,2.0081,2.0072,2.0072,2.0072,0,2.0373,2.034,2.0321,2.031,2.0276,2.0268,2.0253,2.0228,2.0214,2.0192,2.0183,2.0157,2.0144,2.0124,2.0101,2.0099,2.0075,2.0067,2.0064,2.0065,2.0059,2.006,2.0064,2.0051,2.0051,2.0051,2.0051,0,2.037,2.0355,2.0326,2.0315,2.0298,2.0276,2.026,2.0243,2.0222,2.0206,2.0186,2.0172,2.0142,2.0123,2.0105,2.0084,2.0078,2.0067,2.0062,2.0069,2.0071,2.006,2.006,2.0051,2.0051,2.0051,2.0051,0,2.0379,2.0358,2.0337,2.0308,2.0301,2.029,2.0264,2.0252,2.0235,2.0215,2.0209,2.0181,2.0158,2.0134,2.0102,2.0089,2.007,2.0063,2.008,2.0077,2.0075,2.0076,2.0072,2.0071,2.0059,2.006,2.006,0,2.0378,2.0367,2.0338,2.0328,2.0314,2.0297,2.0283,2.0261,2.0247,2.0219,2.021,2.0187,2.0167,2.0132,2.0107,2.0083,2.0076,2.0076,2.0072,2.0079,2.0076,2.0078,2.0077,2.0077,2.0078,2.0078,2.0078,0,2.0379,2.0371,2.0353,2.0333,2.0318,2.03,2.0281,2.0273,2.0247,2.0232,2.0211,2.0196,2.0165,2.0142,2.0115,2.0098,2.0084,2.008,2.0078,2.0085,2.0095,2.009,2.0084,2.008,2.008,2.0079,2.0079,2.0079,2.0384,2.0374,2.0353,2.0334,2.0319,2.0302,2.029,2.0272,2.0254,2.0229,2.0216,2.0195,2.017,2.0134,2.0118,2.01,2.0095,2.0092,2.0091,2.0091,2.0093,2.0098,2.0094,2.0094,2.0094,2.0094,2.0094,0,2.0385,2.0371,2.0354,2.033,2.0316,2.0306,2.0285,2.0273,2.0255,2.0235,2.0217,2.0192,2.017,2.0145,2.0121,2.0112,2.0105,2.0106,2.0107,2.0103,2.0098,2.0103,2.0113,2.0113,2.0113,2.0113,2.0113,2.0113,2.0383,2.0367,2.0356,2.0331,2.0317,2.0298,2.0287,2.0271,2.0255,2.023,2.0212,2.0197,2.0175,2.015,2.0129,2.0122,2.0114,2.0118,2.0109,2.0105,2.0103,2.0102,2.0106,2.0116,2.0116,2.0116,2.0116,2.0116]}]]